Miscellaneous Local Product
Issued by NWS North Platte, NE

Home | Current Version | Previous Version | Graphics & Text | Print | Product List | Glossary On
Versions: 1 2 3 4 5 6 7 8 9 10 11 12 13 14 15 16 17 18 19 20 21 22 23 24 25 26 27 28 29 30 31 32 33 34 35 36 37 38 39 40 41 42 43 44 45 46 47 48 49 50
000
AXUS43 KLBF 010810
MISLBF


WESTERN AND NORTH CENTRAL NEBRASKA HOURLY WEATHER ROUNDUP
NATIONAL WEATHER SERVICE NORTH PLATTE NE
300 AM CDT SAT AUG 01 2015

***STATIONS NOT REPORTING VARIABLES SUCH AS SKY/WEATHER OR
PRESSURE ARE PROVIDED BY THE NEBRASKA DEPARTMENT OF
ROADS...RAWS...AND APRS NETWORKS...AND ARE NOT UNDER
NATIONAL WEATHER SERVICE QUALITY CONTROL***

...OBSERVATIONS IN AND NEAR THE EASTERN PANHANDLE OF NEBRASKA...

CITY           SKY/WX    TMP DP  RH WIND       PRES   REMARKS
PINE RIDGE     PTCLDY    64  54  69 NW5       30.09F
CHADRON        CLEAR     61  53  75 CALM      30.08F
ALLIANCE       CLEAR     60  54  80 S7        30.13F
SIDNEY         CLEAR     67  55  65 SW10      30.18F
BIG SPRINGS      N/A     65  60  83 CALM        N/A
$$

...OBSERVATIONS IN NORTH CENTRAL NEBRASKA...

CITY           SKY/WX    TMP DP  RH WIND       PRES   REMARKS
VALENTINE      PTCLDY    67  60  78 NE5       30.11F
THEDFORD       CLEAR     66  60  81 CALM      30.11F
AINSWORTH      PTCLDY    66  62  86 S3        30.10F
O`NEILL        MOCLDY    67  65  93 CALM      30.09F
ORD            MOCLDY    65  62  90 CALM      30.08F
BROKEN BOW     CLEAR     68  60  75 S5        30.09F
SPRINGVIEW       N/A     67  62  85 NW8         N/A
CHAMBERS         N/A     66  62  87 CALM        N/A
EWING            N/A     64  62  92 CALM        N/A
$$

...OBSERVATIONS IN SOUTHWEST NEBRASKA AND FAR NORTHEAST COLORADO...

CITY           SKY/WX    TMP DP  RH WIND       PRES   REMARKS
WRAY           FAIR      69  58  69 SW9       30.16F
IMPERIAL       CLEAR     70  57  63 SW8       30.13F
OGALLALA       CLEAR     64  62  91 CALM      30.13F
NORTH PLATTE   CLEAR     63  60  90 E3        30.11F
MCCOOK         MOCLDY    76  56  49 E28       30.13S
LEXINGTON      CLEAR     67  63  85 CALM      30.11F
PAXTON           N/A     67  62  84 S8          N/A
BRADY            N/A     64  60  87 CALM        N/A
CALLAWAY         N/A     63  61  93 S6          N/A
$$

...NORTH PLATTE AREA...

CITY           SKY/WX    TMP DP  RH WIND       PRES   REMARKS
AIRPORT        CLEAR     63  60  90 E3        30.11F
DOWNTOWN         N/A     71  63  77 CALM        N/A
SANDRIDGE        N/A     70  62  76 CALM        N/A
HILLCREST        N/A     66  61  84 SE5         N/A
$$

...SOME WEATHER OBSERVATIONS FROM AROUND THE REGION...

CITY           SKY/WX    TMP DP  RH WIND       PRES   REMARKS
DENVER         PTCLDY    67  51  56 S12       30.22F
LARAMIE        CLEAR     55  46  71 SE9       30.32F
CHEYENNE       CLEAR     61  50  67 SW7       30.26F
SCOTTSBLUFF    CLEAR     65  55  70 E7        30.13F
RAPID CITY     PTCLDY    67  53  61 S7        30.09F
PIERRE         CLEAR     69  61  75 SE6       30.00F
WINNER         FAIR      75  61  61 SW13      30.06F
SIOUX FALLS    CLEAR     71  63  75 SW6       30.04F
OMAHA          CLEAR     71  67  87 CALM      30.06F
GRAND ISLAND   MOCLDY    65  63  93 N7        30.09F
KANSAS CITY    CLEAR     72  68  87 SE6       30.05F
WICHITA        CLEAR     74  71  91 S5        30.09S
HAYS           CLEAR     72  63  73 SW8       30.11F
LIBERAL        MOCLDY    72  66  83 SE5       30.16S
GOODLAND       CLEAR     69  60  73 SW14      30.18F
$$



USA.gov is the U.S. government's official web portal to all federal, state and local government web resources and services.